Weather History for New Bedford, MA

Change the Weather History Date:

Wednesday, September 5, 2012

  Actual Average Record
Temperature  
Mean Temperature 70 °F -  
Max Temperature 77 °F 77 °F 90 °F (1983)
Min Temperature 66 °F 60 °F 44 °F (1997)
Cooling Degree Days 6    
Growing Degree Days 20 (Base 50)    
Moisture  
Dew Point 72 °F    
Average Humidity 92    
Maximum Humidity 97    
Minimum Humidity 83    
Precipitation  
Precipitation 1.45 in - - ()
Sea Level Pressure  
Sea Level Pressure 29.79 in    
Wind  
Wind Speed 11 mph (SW)    
Max Wind Speed 21 mph    
Max Gust Speed 34 mph    
Visibility 5 miles    
Events Fog , Rain , Thunderstorm    
Averages and records for this station are not official NWS values.
T = Trace of Precipitation, MM = Missing Value Source: NWS Daily Summary

Daily Weather History Graph

Daily Weather History Graph

Search for Another Location

Airport:

Trip Planner

Search our weather history database for the weather conditions in past years. The results will help you decide how hot, cold, wet, or windy it might be!

Date:

Astronomy

Sep. 05, 2012 Rise Set
Actual Time 6:14 AM EDT 7:09 PM EDT
Civil Twilight 5:46 AM EDT 7:37 PM EDT
Nautical Twilight 5:12 AM EDT 8:11 PM EDT
Astronomical Twilight 4:37 AM EDT 8:46 PM EDT
Moon 9:32 PM EDT (9/5) 11:20 AM EDT (9/5)
Length of Visible Light 13h 51m
Length of Day
12h 55m
Waning Gibbous, 76% of the Moon is Illuminated
Sep 5
Waning Gibbous
Sep 8
Last Quarter
Sep 15
New
Sep 22
First Quarter
Sep 29
Full

Hourly Weather History & Observations

Time (EDT) Temp. Dew Point Humidity Pressure Visibility Wind Dir Wind Speed Gust Speed Precip Events Conditions
12:53 AM 75.0 °F 72.0 °F 90% 29.88 in 7.0 mi SSW 11.5 mph - N/A   Overcast
1:53 AM 75.0 °F 73.0 °F 94% 29.86 in 7.0 mi SSW 12.7 mph - N/A   Overcast
2:53 AM 75.0 °F 73.0 °F 94% 29.84 in 6.0 mi SSW 13.8 mph 24.2 mph N/A   Overcast
3:53 AM 75.9 °F 73.0 °F 91% 29.82 in 7.0 mi SSW 20.7 mph 32.2 mph N/A   Overcast
4:53 AM 75.9 °F 73.0 °F 91% 29.80 in 7.0 mi SSW 18.4 mph 28.8 mph N/A   Overcast
5:53 AM 75.9 °F 73.0 °F 91% 29.80 in 6.0 mi SW 16.1 mph 34.5 mph 0.00 in Rain Light Rain
6:53 AM 75.0 °F 72.0 °F 90% 29.80 in 5.0 mi SSW 13.8 mph 26.5 mph 0.04 in Rain Light Rain
7:04 AM 75.2 °F 71.6 °F 89% 29.79 in 1.8 mi SSW 16.1 mph 23.0 mph 0.03 in Rain Light Rain
7:15 AM 75.2 °F 71.6 °F 89% 29.79 in 2.5 mi SSW 19.6 mph 24.2 mph 0.05 in Rain Light Rain
7:18 AM 75.2 °F 71.6 °F 89% 29.79 in 4.0 mi SSW 17.3 mph 24.2 mph 0.05 in Rain Light Rain
7:35 AM 75.2 °F 71.6 °F 89% 29.78 in 4.0 mi SW 13.8 mph 23.0 mph 0.05 in   Overcast
7:53 AM 75.0 °F 72.0 °F 90% 29.78 in 4.0 mi SSW 16.1 mph 24.2 mph 0.05 in   Overcast
8:53 AM 75.9 °F 73.0 °F 91% 29.78 in 5.0 mi SW 15.0 mph 25.3 mph N/A   Overcast
9:35 AM 75.2 °F 73.4 °F 94% 29.78 in 2.5 mi SW 16.1 mph 21.9 mph 0.04 in Rain Light Rain
9:53 AM 75.0 °F 73.0 °F 94% 29.78 in 2.5 mi SW 10.4 mph 24.2 mph 0.06 in Rain Light Rain
10:14 AM 75.2 °F 73.4 °F 94% 29.77 in 2.0 mi SW 17.3 mph 24.2 mph 0.04 in Rain Light Rain
10:45 AM 75.2 °F 73.4 °F 94% 29.78 in 2.0 mi WSW 9.2 mph - 0.06 in Rain Light Rain
10:53 AM 75.0 °F 73.0 °F 94% 29.78 in 2.0 mi WSW 10.4 mph - 0.08 in Rain Light Rain
11:02 AM 75.2 °F 73.4 °F 94% 29.78 in 3.0 mi SW 10.4 mph - 0.00 in Rain Light Rain
11:19 AM 75.2 °F 73.4 °F 94% 29.78 in 4.0 mi SW 11.5 mph 21.9 mph 0.00 in Rain Light Rain
11:30 AM 75.2 °F 73.4 °F 94% 29.78 in 2.0 mi WSW 8.1 mph 18.4 mph 0.04 in Rain , Thunderstorm Light Thunderstorms and Rain
11:37 AM 75.2 °F 73.4 °F 94% 29.77 in 1.5 mi SW 9.2 mph - 0.06 in Rain , Thunderstorm Thunderstorms and Rain
11:53 AM 75.9 °F 73.9 °F 94% 29.77 in 2.0 mi SW 11.5 mph - 0.11 in Rain , Thunderstorm Light Thunderstorms and Rain
12:12 PM 75.2 °F 73.4 °F 94% 29.77 in 1.0 mi WSW 9.2 mph - 0.17 in Rain , Thunderstorm Heavy Thunderstorms and Rain
12:53 PM 75.0 °F 73.0 °F 94% 29.77 in 1.0 mi SW 10.4 mph - 0.46 in Rain , Thunderstorm Light Thunderstorms and Rain
1:03 PM 75.2 °F 73.4 °F 94% 29.77 in 4.0 mi SW 13.8 mph 23.0 mph 0.00 in Rain Light Rain
1:53 PM 75.9 °F 73.0 °F 91% 29.75 in 6.0 mi SW 11.5 mph - 0.02 in   Overcast
2:40 PM 75.2 °F 73.4 °F 94% 29.76 in 3.0 mi SW 5.8 mph - 0.02 in Rain Light Rain
2:53 PM 75.0 °F 73.0 °F 94% 29.76 in 3.0 mi SW 5.8 mph - 0.02 in Rain Light Rain
3:49 PM 75.2 °F 73.4 °F 94% 29.77 in 0.8 mi WSW 6.9 mph - 0.25 in Rain Heavy Rain
3:53 PM 73.9 °F 73.0 °F 97% 29.77 in 1.0 mi SW 5.8 mph - 0.38 in Rain Heavy Rain
3:55 PM 73.4 °F 71.6 °F 94% 29.76 in 0.2 mi Variable 3.5 mph - 0.09 in Fog , Rain Heavy Rain
4:07 PM 73.4 °F 71.6 °F 94% 29.76 in 1.0 mi West 5.8 mph - 0.23 in Rain Heavy Rain
4:14 PM 73.4 °F 71.6 °F 94% 29.76 in 5.0 mi SW 4.6 mph - 0.23 in Rain Light Rain
4:53 PM 73.9 °F 71.1 °F 91% 29.76 in 10.0 mi Calm Calm - 0.23 in   Overcast
5:53 PM 73.4 °F 71.6 °F 94% 29.77 in 10.0 mi Calm Calm - N/A   Scattered Clouds
7:53 PM 73.0 °F 71.1 °F 93% 29.79 in 4.0 mi Calm Calm - N/A   Overcast
8:12 PM 73.4 °F 71.6 °F 94% 29.81 in 8.0 mi NNE 4.6 mph - N/A   Overcast
8:15 PM 73.4 °F 71.6 °F 94% 29.81 in 8.0 mi NNE 4.6 mph - N/A   Overcast
8:30 PM 73.4 °F 71.6 °F 94% 29.81 in 8.0 mi Calm Calm - N/A   Overcast
8:42 PM 73.4 °F 71.6 °F 94% 29.81 in 6.0 mi Calm Calm - N/A   Overcast
8:53 PM 73.0 °F 71.1 °F 93% 29.81 in 6.0 mi North 3.5 mph - N/A   Overcast
9:06 PM 73.4 °F 71.6 °F 94% 29.81 in 9.0 mi NE 5.8 mph - N/A   Overcast
9:53 PM 70.0 °F 66.0 °F 87% 29.82 in 10.0 mi ENE 5.8 mph - N/A   Overcast
10:00 PM 69.8 °F 66.2 °F 88% 29.82 in 10.0 mi ENE 4.6 mph - N/A   Overcast
10:14 PM 69.8 °F 64.4 °F 83% 29.82 in 10.0 mi East 4.6 mph - N/A   Overcast
10:53 PM 66.9 °F 64.0 °F 90% 29.82 in 10.0 mi Calm Calm - N/A   Clear
11:53 PM 66.0 °F 64.0 °F 93% 29.83 in 10.0 mi Calm Calm - N/A   Scattered Clouds